User: anonymous   Login
Location: Dal�� Lhota
(48.7500°N, 14.0167°E)
Time: 03:26:45
(UTC+00:00)
Language:

SR - Orbit

View from above orbital plane
View from above orbital plane
View from above satellite
View from above satellite

Ground track
Ground track

The orbit data is extracted from the following two-line orbital elements,

1 00046U 60007B   21206.94291949  .00000121  00000-0  46721-4 0  9999
2 00046  66.6906  36.1631 0211773 192.4165 167.1682 14.49418312197582
Epoch (UTC): 25 July 2021 22:37:48
Eccentricity: 0.0211773
inclination: 66.6906°
perigee height: 577 km
apogee height: 878 km
right ascension of ascending node: 36.1631°
argument of perigee: 192.4165°
revolutions per day: 14.49418312
mean anomaly at epoch: 167.1682°
orbit number at epoch: 19758

The dashed part of the orbit path shows where the satellite is in the earth's shadow,  

DLR